Regional Weather Roundup
Issued by NWS Little Rock, AR

Home | Current Version | Previous Version | Graphics & Text | Print | Product List | Glossary On
Versions: 1 2 3 4 5 6 7 8 9 10 11 12 13 14 15 16 17 18 19 20 21 22 23 24 25 26 27 28 29 30 31 32 33 34 35 36 37 38 39 40 41 42 43 44 45 46 47 48 49 50
000
ASUS44 KLZK 270805
RWRLZK

WEATHER ROUNDUP FOR ARKANSAS
NATIONAL WEATHER SERVICE LITTLE ROCK AR
300 AM CDT WED AUG 27 2014

NOTE: "FAIR" INDICATES FEW OR NO CLOUDS BELOW 12,000 FEET WITH NO
SIGNIFICANT WEATHER AND/OR OBSTRUCTIONS TO VISIBILITY.

ARZ001-003-010-029-270900-
NORTHWEST ARKANSAS

CITY           SKY/WX    TMP DP  RH WIND       PRES   REMARKS
FAYETTEVILLE   CLEAR     70  69  97 CALM      30.11S
FORT SMITH     CLEAR     78  72  81 NE5       30.06S
HARRISON       CLEAR     71  71 100 CALM      30.12S
BENTONVILLE    CLEAR     73  66  78 CALM      30.12S
ROGERS         CLEAR     74  68  81 SE3       30.12F
SILOAM SPGS    CLEAR     73  63  68 E5        30.12R
HIGHFILL       CLEAR     71  66  84 CALM      30.11S
$$

ARZ004-005-016-270900-
NORTH CENTRAL ARKANSAS

CITY           SKY/WX    TMP DP  RH WIND       PRES   REMARKS
BATESVILLE     PTCLDY    73  72  94 CALM      30.06S
FLIPPIN        CLEAR     73  66  78 CALM      30.09S
MTN HOME       CLEAR     74  69  85 CALM      30.09S
$$

ARZ040-041-270900-
WEST CENTRAL ARKANSAS

CITY           SKY/WX    TMP DP  RH WIND       PRES   REMARKS
MENA           CLEAR     72  70  94 CALM      30.09S
MOUNT IDA      CLEAR     72  70  93 CALM      30.06R FOG
$$

ARZ009-017-025-026-028-270900-
NORTHEAST ARKANSAS

CITY           SKY/WX    TMP DP  RH WIND       PRES   REMARKS
CORNING          N/A     73  73 100 CALM      30.07S
JONESBORO      CLEAR     74  70  87 CALM      30.06S
NEWPORT        CLOUDY    76  73  90 CALM      30.07S
WALNUT RIDGE   CLEAR     72  57  60 NE5       30.06R
BLYTHEVILLE    CLEAR     74  72  93 CALM      30.06S
$$

ARZ022-023-033-042-044-270900-
CENTRAL ARKANSAS

CITY           SKY/WX    TMP DP  RH WIND       PRES   REMARKS
LITTLE ROCK    PTCLDY    78  73  84 CALM      30.06R
N LITTLE ROCK    N/A     77  74  90 CALM      30.06R
JACKSONVILLE   CLEAR     75  74  96 CALM      30.06R FOG
SEARCY         CLEAR     75  74  97 CALM      30.07S
HOT SPRINGS    CLEAR     75  73  93 CALM      30.07S
RUSSELLVILLE   CLEAR     74  71  91 CALM      30.06S
CLINTON        FAIR      72  72 100 CALM      30.09R FOG
$$

ARZ036-270900-
EAST ARKANSAS

CITY           SKY/WX    TMP DP  RH WIND       PRES   REMARKS
WEST MEMPHIS   CLEAR     73  73 100 CALM      30.05R
$$

ARZ050-053-066-070-073-270900-
SOUTHWEST ARKANSAS

CITY           SKY/WX    TMP DP  RH WIND       PRES   REMARKS
ARKADELPHIA    FAIR      74  74 100 CALM      30.05S
CAMDEN         FOG       70  68  94 CALM      30.03F VSB 1
TEXARKANA      PTCLDY    73  72  96 NE3       30.04S FOG
EL DORADO      PTCLDY    71  69  93 CALM      30.04S
DE QUEEN       CLEAR     71  71 100 CALM      30.03S FOG
$$

ARZ056-057-069-270900-
SOUTHEAST ARKANSAS

CITY           SKY/WX    TMP DP  RH WIND       PRES   REMARKS
PINE BLUFF     PTCLDY    73  71  93 CALM      30.05R
STUTTGART      PTCLDY    77  72  83 CALM      30.06S
MONTICELLO     CLEAR     72  67  84 CALM      30.04S

$$




USA.gov is the U.S. government's official web portal to all federal, state and local government web resources and services.